#timestamp,LO_Frequency,Hit,StdDev 
1697860815.9,286046998.6,N
1697860835.7,286046998.6,N
1697860855.6,286046998.1,N
1697860875.4,286047002.8,N
1697860895.2,286046999.7,N
1697860945.1,286047002.7,E
1697860955.0,286047000.7,N
1697860955.9,286047000.7,P
1697860975.8,286046999.0,P
1697860995.6,286046998.8,N
1697861015.4,286047000.7,N
1697861035.3,286047000.7,N
1697861055.1,286047000.6,N
1697861075.8,286047000.0,N
1697861095.7,286047000.2,N
1697861115.5,286047002.6,Y
1697861135.4,286047000.0,P
1697861155.2,286047002.5,P
1697861175.0,286047004.0,P
1697861175.9,286047004.0,N
1697861195.8,286047003.8,N
1697861215.6,286047004.1,N
1697861235.4,286047003.0,N
1697861255.3,286047003.3,N
1697861275.1,286047003.0,N
1697861295.9,286047004.1,N
1697861315.7,286047004.2,N
1697861335.5,286047003.5,N
1697861355.4,286047004.0,N
1697861375.2,286047004.1,Y
1697861395.1,286047000.8,P
1697861396.0,286047000.8,N
1697861415.8,286047001.2,N
1697861435.6,286046996.7,Y
1697861455.5,286046996.3,P
1697861475.3,286046997.7,N
1697861495.2,286046997.1,N
1697861515.9,286046997.8,N
1697861535.7,286046997.9,N
1697861555.6,286046996.9,N
1697861575.4,286046997.1,N
1697861595.2,286046996.5,N
1697861615.1,286046999.0,N
1697861616.0,286046999.0,N
1697861635.8,286046999.3,N
1697861655.7,286046997.0,N
1697861675.5,286046997.4,N
1697861695.3,286046995.9,Y
1697861715.2,286047001.2,P
1697861735.0,286046998.2,N
1697861735.9,286046998.2,N
1697861755.7,286047002.8,N
1697861775.6,286047002.3,N
1697861795.4,286047001.1,N
1697861815.3,286046999.9,N
1697861835.1,286047000.3,N
1697861836.0,286047000.3,N
1697861855.8,286047001.1,N
1697861875.7,286047001.0,N
1697861895.5,286046998.5,N
1697861915.3,286046998.1,N
1697861935.2,286046998.5,N
1697861955.0,286047001.2,N
1697861955.9,286047001.2,N
1697861975.8,286046998.1,N
1697861995.6,286046999.9,N
1697862015.4,286047000.1,N
1697862035.3,286046999.8,N
1697862055.1,286047002.4,N
1697862075.8,286047002.3,N
1697862095.7,286047000.0,N
1697862115.5,286047001.9,N
1697862135.4,286047001.4,N
1697862155.2,286047003.9,N
1697862175.0,286047003.3,N
1697862175.9,286047003.3,N
1697862195.8,286047005.5,Y
1697862215.6,286047003.3,P
1697862235.5,286047003.3,N
1697862255.3,286047004.8,P
1697862275.1,286047005.0,Y
1697862295.9,286047004.3,P
1697862315.7,286047004.3,P
1697862335.5,286047002.1,P
1697862355.4,286047002.3,N
1697862375.2,286047004.4,Y
1697862395.1,286047000.5,P
1697862396.0,286047000.5,N
1697862415.8,286047002.8,N
1697862435.6,286047000.3,N
1697862455.5,286046999.3,N
1697862475.3,286046998.3,N
1697862495.1,286047000.8,N
1697862515.9,286047000.9,N
1697862535.7,286047001.7,N
1697862555.6,286047003.3,N
1697862575.4,286047004.2,N
1697862595.2,286047001.5,N
1697862615.1,286047002.0,N
1697862616.0,286047002.0,N
1697862635.8,286047000.8,N
1697862655.7,286047000.2,N
1697862675.5,286047002.5,N
1697862695.3,286047001.7,N
1697862715.2,286047001.4,N
1697862735.9,286047005.8,Y
1697862755.7,286047003.1,P
1697862775.6,286047002.9,P
1697862795.4,286047005.4,P
1697862815.3,286047005.2,Y
1697862835.1,286047000.0,P
1697862836.0,286047000.0,N
1697862855.8,286046998.5,N
1697862875.7,286046996.9,N
1697862895.5,286046995.8,N
1697862915.3,286046993.4,N
1697862935.2,286046996.2,N
1697862955.0,286046996.3,N
1697862955.9,286046996.3,N
1697862975.8,286046995.4,N
1697862995.6,286046999.4,N
1697863015.4,286046999.2,N
1697863035.3,286046996.6,N
1697863055.1,286046995.0,N
1697863075.8,286046993.6,N
1697863095.7,286046994.0,N
1697863115.5,286046993.6,N
1697863135.4,286046994.4,N
1697863155.2,286046993.3,N
1697863175.0,286046995.0,N
1697863175.9,286046995.0,N
1697863195.8,286046995.0,N
1697863215.6,286046995.0,N
1697863235.5,286046996.7,N
1697863255.3,286046997.4,N
1697863275.1,286046999.6,N
1697863295.9,286046999.6,N
1697863315.7,286046998.9,N
1697863335.5,286047000.9,N
1697863355.4,286046999.8,N
1697863375.2,286047000.1,N
1697863395.1,286047001.1,N
1697863396.0,286047001.1,N
1697863415.8,286047000.7,N
1697863435.6,286046998.2,N
1697863455.5,286046998.4,N
1697863475.3,286046996.8,N
1697863495.1,286046995.0,N
1697863515.9,286046995.4,N
1697863535.7,286046996.2,N
1697863555.6,286046995.0,N
1697863575.4,286046997.8,N
1697863595.2,286046997.7,N
1697863615.1,286046999.5,N
1697863616.0,286046999.5,N
1697863635.8,286046998.0,N
1697863655.6,286046997.6,N
1697863675.5,286046997.3,N
1697863695.3,286046995.6,N
1697863715.2,286046995.4,N
1697863735.9,286046995.4,N
1697863755.7,286046997.9,N
1697863775.6,286046997.3,N
1697863795.4,286046999.6,N
1697863815.2,286046996.9,N
1697863835.1,286046996.7,N
1697863836.0,286046996.7,N
1697863855.8,286046999.0,N
1697863875.7,286046998.8,N
1697863895.5,286046998.5,N
1697863915.3,286047000.9,N
1697863935.2,286047002.2,N
1697863955.9,286047004.4,N
1697863975.7,286047003.3,N
1697863995.6,286047005.5,N
1697864015.4,286047003.8,N
1697864035.2,286047003.6,N
1697864055.1,286047004.3,N
1697864056.0,286047004.3,N
1697864075.8,286047001.5,N
1697864095.7,286047002.3,N
1697864115.5,286047001.6,N
1697864135.3,286047001.3,N
1697864155.2,286047004.2,N
1697864175.0,286047001.9,N
1697864175.9,286047001.9,N
1697864195.8,286047003.4,N
1697864215.6,286047003.6,N
1697864235.4,286047005.9,N
1697864255.3,286047004.7,N
1697864275.1,286047005.2,N
1697864295.8,286047003.7,N
1697864315.7,286047003.5,N
1697864335.5,286047003.1,N
1697864355.4,286047003.7,N
1697864375.2,286047003.7,N
1697864395.0,286047003.3,N
1697864395.9,286047003.3,N
